Wind_Speed
16 16 14 12 8 9 10 6 7 15 10 6 6 4 5 6 5 7 10 9 11 12 14 11 6 7 7 8 7 7 9 9 10 10 11 11 11 11 11 11 12 12 13 17 17 19 18 17 15
14 14 13 12 9 11 4 7 11 14 10 10 10 6 4 4 3 7 8 6 7 7 8 8 7 7 8 7 7 7 8 9 10 11 11 12 12 12 12 12 13 14 14 15 17 18 18 18 18
12 12 12 8 12 9 2 5 8 18 12 12 12 6 5 4 5 7 7 8 8 8 8 7 7 7 7 7 7 8 10 10 10 10 11 11 11 12 12 13 13 14 15 16 17 18 19 19 20
10 11 12 14 10 6 6 8 9 13 12 11 9 7 8 6 4 7 8 8 7 7 8 9 8 7 8 8 9 11 10 9 9 9 10 10 11 11 12 13 14 15 16 17 18 18 19 20 21
11 12 14 10 9 7 5 11 13 15 11 10 8 6 5 4 6 9 11 10 11 11 10 9 9 8 8 8 8 7 5 5 6 7 9 11 13 14 15 16 17 17 18 19 20 21 20 21 22
12 12 10 12 7 6 6 13 17 18 13 10 9 6 5 5 6 9 10 11 11 12 12 10 9 8 8 6 6 6 7 9 10 12 14 16 17 18 19 19 20 21 22 23 23 23 23 22 23
12 9 9 8 6 7 9 15 21 20 15 12 9 7 7 9 9 10 11 11 10 10 9 9 8 8 7 7 8 9 11 12 14 16 18 19 20 21 21 21 22 22 22 24 25 25 25 25 25
10 9 6 5 8 10 10 12 19 17 13 10 8 7 9 11 11 12 12 13 12 12 11 10 9 8 9 9 11 14 16 18 18 19 20 20 21 21 21 21 21 21 21 22 23 23 25 25 26
9 7 5 7 7 10 13 15 18 13 11 10 10 10 13 12 11 11 13 13 12 11 11 10 10 8 9 11 15 17 18 18 17 17 17 18 18 19 20 21 21 21 21 20 20 20 22 24 24
7 6 5 6 8 9 11 14 16 12 10 11 11 14 13 12 12 11 12 12 12 12 11 10 9 9 11 14 16 15 13 16 15 14 14 14 15 16 17 18 19 20 20 19 19 18 18 20 23
7 6 6 7 4 1 7 13 12 9 9 12 14 12 11 12 9 10 11 12 12 12 12 10 11 11 14 13 11 12 11 9 11 12 14 15 16 16 18 18 18 19 18 18 19 18 17 18 21
10 8 6 7 6 4 12 11 10 9 12 13 15 12 12 8 7 7 8 10 12 11 10 9 9 11 10 10 9 9 11 12 12 14 13 14 16 17 18 18 19 21 18 17 19 20 19 19 21
10 9 9 9 11 10 12 11 10 12 15 16 12 12 8 6 5 7 10 12 11 7 5 8 9 9 9 8 10 11 10 12 13 15 15 15 15 15 14 14 15 13 15 18 21 21 22 23 24
10 10 11 9 10 12 12 11 12 15 15 13 11 8 6 5 4 6 6 3 1 4 5 8 10 9 6 8 8 10 12 13 14 15 16 17 17 16 17 17 15 15 18 19 19 21 24 25 27
7 9 7 9 10 13 12 13 16 15 11 10 8 8 7 4 4 1 2 3 1 2 5 7 3 4 6 8 9 11 13 14 13 15 16 17 16 17 18 19 20 20 21 22 23 23 22 23 27
6 7 6 8 10 12 14 16 16 12 9 9 9 9 8 6 6 1 3 3 3 2 4 3 6 7 9 11 13 14 15 16 18 18 18 19 19 19 20 21 22 23 24 27 27 28 28 29 29
12 10 11 10 11 13 15 17 13 11 10 11 10 11 13 9 6 3 5 6 2 1 3 5 10 11 17 20 20 20 21 22 22 22 22 21 22 22 23 23 24 27 29 30 30 29 30 33 32
11 12 14 15 11 13 14 15 13 15 17 16 13 14 16 14 8 8 8 6 4 3 4 6 9 13 19 21 22 24 26 26 25 25 25 25 25 25 24 25 27 29 31 31 31 32 32 31 34
9 12 14 15 17 19 20 18 18 18 18 21 19 16 17 15 16 14 10 11 9 8 6 8 11 15 19 22 24 27 30 29 27 26 27 27 28 28 29 29 30 30 32 32 31 30 32 33 34
7 9 13 13 15 14 15 14 12 13 17 19 20 18 18 21 22 21 21 16 13 11 9 9 12 17 20 24 27 30 28 27 26 28 29 29 30 30 31 32 32 32 32 32 31 31 31 31 33
8 9 8 9 13 15 17 17 15 16 19 21 24 21 22 24 26 23 24 18 20 16 12 4 13 17 22 26 27 26 26 27 27 29 29 29 30 31 31 31 32 32 31 31 31 32 33 34 33
7 8 11 13 13 8 12 6 11 16 16 19 23 24 26 28 27 27 21 23 22 17 8 12 11 19 25 26 25 24 25 26 27 28 29 30 30 31 31 31 32 33 33 33 34 35 36 36 35
11 12 15 15 14 11 15 7 12 12 12 17 22 25 28 31 29 27 26 30 31 20 8 10 13 22 24 24 24 23 24 24 25 27 28 29 31 33 33 33 33 34 33 33 34 35 36 39 40
13 15 15 15 14 5 13 7 6 11 13 15 17 19 20 24 20 27 30 37 33 5 10 15 18 22 23 22 22 22 23 24 25 27 29 30 32 34 34 34 34 35 35 35 36 36 36 38 41
9 9 5 3 1 3 3 3 5 10 12 14 15 16 17 18 18 26 32 23 3 8 13 16 20 21 21 21 22 23 23 24 26 27 29 30 30 31 33 34 36 37 38 38 38 37 38 39 41
10 8 4 4 5 7 11 4 9 11 15 13 13 12 12 13 16 17 8 4 8 11 15 17 20 21 22 22 23 24 24 26 27 28 29 29 29 30 31 33 35 38 39 39 39 38 37 36 35
6 4 4 4 5 2 3 5 7 13 14 10 8 10 12 12 13 2 2 3 8 14 16 18 19 21 23 23 23 24 26 27 27 29 30 29 29 28 30 33 37 38 37 35 34 31 30 30 30
5 3 3 3 2 4 3 6 4 13 14 12 11 12 14 17 9 5 3 6 9 14 16 18 19 20 21 22 22 24 25 27 28 29 29 28 25 27 32 36 37 37 32 29 29 29 30 31 32
4 1 1 1 1 1 2 1 12 19 9 13 10 9 7 8 3 4 7 10 12 14 17 16 18 19 20 21 23 24 26 27 28 29 28 23 25 30 35 38 37 36 33 31 30 29 29 30 31
3 3 3 1 3 2 1 3 15 10 4 2 4 1 2 2 7 10 11 12 14 12 14 16 17 19 20 22 24 25 27 27 28 28 24 22 27 34 39 40 37 35 32 31 30 28 28 30 32
Wind_Direction
270 268 269 277 269 240 233 221 189 188 183 183 178 207 216 226 285 274 301 285 243 221 214 227 215 207 204 208 205 209 223 233 243 246 248 251 255 258 260 260 261 262 251 253 260 258 258 256 256
267 261 257 263 247 239 228 210 190 174 195 225 211 208 217 250 271 259 278 235 216 214 201 197 193 191 193 204 211 218 228 231 236 243 247 250 254 256 258 259 260 261 259 258 258 258 258 255 256
263 257 250 251 244 230 235 228 227 217 227 208 202 209 218 237 231 239 235 216 196 187 188 192 199 200 203 214 223 228 233 234 236 239 245 249 251 253 256 259 261 262 264 263 261 259 256 253 253
251 246 240 240 244 222 258 236 210 210 196 198 200 200 215 205 254 213 198 188 193 196 199 203 208 210 213 217 224 228 232 236 242 247 255 263 264 264 264 264 263 264 265 265 265 262 257 254 254
247 239 235 246 227 220 288 217 213 205 217 228 214 231 216 251 238 206 186 198 206 206 207 204 203 206 206 209 217 226 240 255 269 275 280 280 280 279 276 274 271 271 268 268 268 266 261 257 252
241 235 239 240 222 263 281 212 216 214 232 233 231 245 269 299 273 218 205 207 211 212 202 194 192 193 200 208 225 247 260 271 276 280 283 285 284 281 279 274 267 262 260 258 257 258 258 256 254
229 233 248 248 229 267 270 223 211 218 236 239 241 224 285 304 275 235 226 223 219 216 205 194 195 208 221 237 255 273 283 288 291 290 289 286 283 282 282 279 275 270 264 258 255 251 248 246 246
229 233 253 268 263 267 256 227 221 222 231 233 238 264 291 288 250 236 237 234 223 215 211 209 213 227 246 266 283 291 293 292 292 289 287 284 284 285 284 280 275 271 267 263 260 256 253 250 247
230 235 256 275 300 283 252 218 211 213 222 230 241 273 284 257 244 248 241 234 222 219 214 218 227 248 277 292 295 295 294 292 291 289 290 294 293 290 287 284 279 272 267 265 262 259 256 252 250
228 248 258 289 295 306 238 209 210 215 235 255 268 289 263 245 254 243 238 232 228 227 225 227 247 269 282 284 287 290 288 292 291 292 297 297 295 295 292 288 283 276 270 265 262 257 255 251 248
240 249 268 269 267 217 180 196 203 238 262 282 283 277 255 267 265 259 246 242 235 237 236 244 260 275 281 287 290 296 298 298 298 301 297 297 299 300 297 293 287 280 271 266 261 260 257 255 252
239 252 276 263 236 251 195 215 238 268 282 287 289 274 280 272 273 265 266 252 240 235 246 258 272 282 289 298 296 288 292 299 301 299 302 301 301 304 301 298 293 285 275 268 264 262 262 256 251
251 261 270 249 232 239 221 237 262 281 287 288 277 278 264 265 247 258 260 261 251 254 271 281 289 296 299 283 279 289 304 311 310 311 309 305 301 298 303 302 304 295 278 283 274 263 259 258 254
256 267 268 251 237 235 238 251 269 290 286 278 273 250 239 224 269 278 249 192 226 308 304 298 297 296 277 277 291 310 314 312 314 314 311 308 308 308 306 307 299 287 280 283 280 275 267 261 258
261 254 248 236 241 242 250 265 288 284 272 262 255 237 220 257 318 322 159 117 232 356 340 321 309 314 315 317 324 320 313 315 319 317 314 311 306 304 304 304 300 293 287 281 276 274 272 271 264
274 232 216 225 238 256 272 282 292 279 266 252 242 229 249 268 312 293 171 156 153 1 342 14 342 326 326 330 332 328 327 327 327 323 316 313 311 307 302 298 296 293 287 283 278 275 276 269 270
250 243 249 256 265 278 274 284 284 283 283 261 263 249 245 244 253 203 205 183 165 277 335 348 343 344 344 341 337 334 332 329 324 319 317 314 309 305 301 300 301 301 295 285 280 275 268 267 271
246 245 259 262 274 293 285 283 283 278 283 274 253 246 245 244 226 205 221 210 224 247 297 317 339 343 335 334 330 327 325 323 322 320 316 312 308 305 300 302 304 302 299 293 284 276 271 267 266
269 259 260 265 276 287 288 283 281 278 277 271 261 263 257 237 200 208 241 222 233 253 284 312 324 329 326 326 322 320 321 321 319 314 310 310 309 307 304 304 303 303 300 296 290 281 274 269 264
282 287 276 282 284 289 287 287 267 269 306 287 270 263 254 231 215 212 211 219 221 234 258 281 303 317 321 320 318 316 314 313 314 313 311 312 309 307 306 304 303 301 298 295 289 285 282 276 270
279 280 302 307 304 300 294 284 275 280 289 273 257 250 250 249 262 247 229 216 221 229 249 304 288 302 315 314 311 312 312 314 313 310 311 312 310 307 305 303 304 303 302 296 289 285 281 278 275
286 300 314 312 307 282 293 290 286 293 280 265 260 262 266 265 264 253 223 221 232 227 194 248 325 301 314 315 314 315 315 313 311 311 311 311 309 306 305 304 304 303 300 297 292 287 283 280 276
309 310 306 299 284 274 271 259 281 273 278 278 276 273 267 267 269 250 223 221 230 229 296 342 329 313 316 318 317 316 312 311 311 312 312 313 312 308 310 312 311 307 303 298 293 287 284 282 279
297 299 300 289 278 254 279 255 281 282 282 285 290 297 297 291 261 223 223 229 233 289 358 341 319 322 319 319 317 315 316 316 318 319 319 317 312 312 316 316 313 310 306 302 297 292 288 283 280
305 309 306 277 250 276 305 300 276 290 287 290 292 292 295 287 246 233 228 230 327 342 345 338 323 322 321 322 319 319 321 323 323 322 318 314 314 318 318 317 313 310 307 303 299 295 290 285 282
308 299 263 285 292 307 305 290 292 306 319 318 300 305 311 298 274 241 267 351 8 357 357 334 328 327 326 323 324 325 325 323 323 319 317 320 323 324 321 320 320 315 309 304 300 298 294 289 287
303 286 289 285 291 256 276 300 319 331 331 312 295 277 244 220 228 335 255 36 356 353 344 335 331 330 328 327 325 324 321 318 320 320 324 328 329 329 330 330 329 324 316 311 308 305 301 299 295
286 273 312 322 306 302 306 320 4 336 314 295 251 229 222 233 261 279 327 344 352 345 339 333 328 328 325 321 317 314 316 322 322 326 330 330 330 332 334 335 332 327 320 315 311 307 304 303 300
344 299 77 229 242 247 298 24 331 333 304 263 210 226 283 300 261 330 343 337 339 340 335 328 324 322 319 318 314 317 323 323 327 330 329 330 332 334 335 333 331 330 321 317 314 311 309 306 304
18 4 311 233 209 189 162 300 346 10 57 187 197 292 319 313 325 314 327 329 356 337 328 322 323 325 321 318 319 322 323 325 327 326 327 330 334 335 335 332 331 331 326 323 320 319 315 313 310
Height
3159 3160 3161 3161 3166 3159 3157 3158 3158 3158 3160 3160 3160 3161 3162 3162 3163 3166 3161 3159 3159 3160 3161 3162 3162 3162 3162 3163 3163 3163 3163 3164 3164 3165 3165 3165 3165 3166 3166 3166 3167 3167 3166 3167 3167 3168 3168 3169 3169
3157 3157 3159 3158 3159 3156 3157 3156 3157 3157 3158 3158 3159 3160 3160 3161 3161 3160 3160 3159 3159 3160 3160 3160 3160 3160 3160 3161 3161 3162 3162 3163 3163 3163 3163 3163 3164 3164 3164 3164 3164 3164 3164 3164 3164 3164 3165 3166 3167
3154 3155 3157 3156 3154 3154 3155 3154 3154 3156 3156 3157 3158 3159 3159 3160 3159 3160 3159 3158 3159 3159 3159 3160 3160 3160 3160 3161 3161 3161 3161 3161 3161 3161 3161 3161 3162 3162 3161 3162 3161 3161 3161 3161 3161 3162 3162 3163 3163
3152 3154 3155 3153 3152 3152 3152 3152 3153 3154 3155 3156 3157 3158 3158 3158 3158 3158 3158 3159 3159 3159 3159 3159 3159 3160 3160 3160 3160 3160 3160 3160 3160 3160 3160 3160 3160 3160 3159 3159 3158 3158 3158 3158 3158 3158 3159 3160 3160
3150 3151 3152 3151 3151 3151 3151 3151 3152 3153 3154 3154 3155 3155 3156 3155 3155 3155 3155 3156 3157 3157 3157 3157 3158 3158 3159 3159 3159 3159 3159 3159 3159 3158 3158 3158 3158 3157 3157 3156 3155 3155 3155 3155 3155 3155 3155 3156 3156
3148 3149 3150 3149 3150 3150 3150 3150 3150 3151 3152 3153 3153 3153 3154 3154 3154 3154 3154 3154 3154 3154 3154 3155 3156 3156 3157 3157 3157 3158 3158 3158 3157 3157 3156 3155 3154 3153 3152 3152 3151 3150 3150 3150 3150 3151 3150 3151 3152
3146 3147 3148 3148 3149 3149 3148 3147 3148 3149 3151 3152 3153 3153 3153 3153 3152 3152 3152 3153 3153 3153 3153 3154 3154 3154 3155 3155 3155 3155 3155 3155 3154 3153 3152 3151 3150 3149 3148 3147 3146 3145 3144 3144 3144 3145 3145 3145 3146
3145 3146 3147 3147 3147 3147 3146 3146 3147 3149 3150 3151 3152 3153 3153 3153 3152 3150 3151 3151 3151 3151 3152 3152 3152 3152 3153 3153 3153 3152 3151 3151 3150 3148 3147 3146 3145 3144 3143 3142 3141 3140 3139 3138 3139 3140 3140 3140 3141
3143 3146 3146 3146 3145 3145 3144 3144 3146 3149 3150 3151 3151 3152 3151 3150 3150 3150 3150 3150 3150 3150 3150 3150 3150 3150 3150 3150 3150 3148 3147 3145 3144 3143 3143 3142 3141 3140 3138 3137 3136 3135 3133 3133 3133 3134 3135 3135 3135
3142 3144 3144 3144 3143 3142 3142 3145 3147 3149 3150 3150 3150 3149 3148 3148 3148 3148 3147 3147 3147 3148 3148 3148 3148 3147 3147 3147 3146 3145 3143 3142 3140 3140 3139 3138 3137 3135 3134 3133 3132 3131 3130 3129 3129 3129 3130 3131 3131
3140 3141 3142 3142 3141 3141 3142 3145 3147 3148 3149 3149 3148 3148 3147 3147 3147 3146 3146 3146 3146 3147 3147 3146 3146 3146 3145 3144 3142 3142 3140 3140 3138 3137 3136 3135 3134 3133 3131 3129 3128 3127 3126 3125 3125 3125 3125 3125 3126
3139 3139 3140 3140 3140 3141 3142 3144 3146 3147 3147 3146 3145 3145 3145 3145 3145 3145 3146 3146 3145 3145 3145 3143 3143 3143 3142 3141 3140 3139 3138 3137 3136 3134 3133 3133 3131 3130 3128 3127 3125 3124 3124 3123 3122 3121 3121 3121 3121
3137 3138 3138 3138 3139 3140 3141 3142 3143 3143 3143 3142 3142 3142 3142 3143 3144 3144 3144 3143 3142 3142 3142 3141 3141 3141 3139 3139 3138 3137 3136 3134 3132 3131 3131 3130 3128 3127 3125 3124 3122 3120 3120 3120 3119 3118 3117 3117 3117
3136 3136 3136 3137 3138 3138 3139 3140 3141 3141 3139 3139 3139 3139 3140 3141 3142 3141 3140 3140 3140 3139 3139 3139 3139 3139 3138 3137 3136 3135 3134 3132 3130 3128 3127 3126 3124 3123 3121 3120 3119 3117 3117 3116 3115 3115 3114 3114 3113
3134 3135 3135 3135 3136 3137 3137 3138 3137 3137 3137 3137 3137 3138 3138 3138 3138 3138 3138 3138 3138 3138 3138 3138 3137 3136 3135 3134 3133 3132 3131 3129 3127 3125 3124 3122 3121 3119 3117 3116 3114 3113 3112 3111 3110 3110 3109 3109 3108
3133 3133 3134 3135 3135 3135 3136 3135 3134 3134 3134 3135 3135 3135 3136 3136 3136 3135 3136 3136 3136 3137 3137 3136 3135 3134 3133 3132 3130 3129 3127 3125 3123 3121 3120 3117 3115 3114 3113 3111 3109 3108 3106 3104 3103 3103 3102 3102 3102
3129 3131 3132 3133 3133 3133 3134 3132 3131 3131 3132 3132 3132 3132 3132 3132 3133 3133 3133 3134 3134 3135 3135 3134 3133 3131 3129 3127 3126 3125 3123 3121 3120 3118 3115 3113 3110 3109 3107 3105 3103 3100 3098 3096 3095 3094 3093 3093 3093
3125 3126 3127 3128 3130 3129 3129 3128 3128 3128 3128 3129 3129 3129 3129 3129 3129 3129 3130 3131 3132 3131 3132 3132 3131 3129 3127 3125 3123 3121 3119 3117 3114 3111 3109 3107 3105 3103 3101 3098 3095 3092 3090 3087 3085 3084 3084 3084 3084
3123 3124 3124 3125 3125 3124 3123 3124 3123 3124 3123 3123 3124 3125 3125 3127 3126 3126 3126 3127 3128 3129 3129 3129 3129 3127 3124 3122 3119 3117 3114 3111 3108 3106 3104 3101 3098 3095 3093 3090 3087 3084 3082 3078 3076 3075 3073 3074 3074
3121 3120 3120 3120 3120 3120 3119 3119 3119 3119 3120 3120 3122 3123 3124 3123 3119 3117 3119 3123 3123 3123 3126 3127 3126 3124 3122 3119 3116 3113 3110 3107 3104 3101 3098 3094 3092 3088 3086 3083 3079 3076 3073 3070 3067 3065 3064 3064 3064
3118 3117 3117 3118 3117 3117 3116 3115 3116 3117 3117 3116 3117 3119 3119 3117 3117 3116 3114 3119 3120 3118 3120 3121 3122 3121 3118 3115 3111 3108 3104 3101 3098 3095 3092 3088 3085 3082 3078 3075 3072 3068 3064 3061 3058 3056 3055 3054 3055
3115 3115 3115 3114 3114 3115 3114 3113 3113 3113 3112 3112 3113 3115 3115 3115 3114 3113 3113 3115 3115 3115 3114 3115 3116 3116 3113 3109 3105 3101 3098 3096 3093 3089 3085 3081 3078 3075 3072 3068 3064 3060 3057 3053 3049 3046 3045 3043 3043
3114 3113 3112 3111 3111 3111 3110 3111 3109 3109 3109 3109 3109 3109 3108 3109 3108 3108 3108 3110 3108 3108 3111 3110 3109 3109 3106 3102 3099 3096 3095 3092 3088 3084 3080 3075 3071 3068 3064 3059 3056 3052 3048 3044 3041 3038 3035 3031 3030
3112 3111 3109 3108 3108 3108 3107 3109 3107 3107 3107 3106 3106 3105 3104 3103 3103 3104 3103 3103 3102 3106 3106 3106 3105 3102 3101 3097 3095 3092 3090 3086 3082 3078 3074 3070 3066 3061 3055 3051 3048 3044 3039 3034 3030 3027 3024 3021 3018
3110 3109 3108 3107 3106 3106 3106 3107 3105 3104 3104 3103 3103 3102 3101 3100 3101 3101 3101 3101 3101 3103 3103 3101 3101 3097 3095 3093 3091 3087 3084 3080 3076 3073 3070 3066 3061 3054 3048 3044 3040 3034 3028 3023 3018 3015 3012 3009 3005
3109 3109 3109 3106 3105 3107 3106 3104 3103 3103 3102 3101 3100 3101 3101 3101 3101 3102 3102 3101 3103 3102 3099 3099 3096 3094 3092 3090 3086 3082 3078 3075 3072 3069 3066 3059 3053 3047 3043 3038 3031 3024 3018 3011 3006 3003 2999 2996 2994
3107 3107 3107 3106 3105 3105 3104 3103 3102 3101 3101 3100 3100 3100 3100 3101 3101 3101 3102 3102 3102 3099 3097 3095 3092 3089 3087 3085 3081 3078 3075 3072 3068 3064 3058 3051 3045 3041 3037 3031 3024 3016 3009 3002 2997 2993 2989 2985 2983
3106 3106 3105 3105 3104 3103 3102 3102 3103 3102 3100 3099 3099 3099 3100 3101 3101 3101 3101 3100 3097 3096 3094 3092 3089 3085 3084 3081 3079 3076 3072 3067 3062 3056 3050 3045 3041 3037 3030 3023 3016 3009 3002 2996 2991 2986 2981 2978 2974
3104 3103 3103 3105 3105 3103 3103 3103 3101 3099 3096 3096 3097 3099 3102 3100 3101 3102 3100 3098 3095 3093 3091 3088 3086 3084 3082 3078 3074 3070 3065 3061 3055 3050 3045 3041 3036 3031 3024 3017 3010 3001 2994 2988 2983 2979 2974 2970 2966
3102 3102 3102 3102 3103 3102 3103 3103 3100 3098 3097 3097 3099 3101 3101 3100 3099 3097 3096 3095 3092 3091 3089 3086 3083 3080 3077 3073 3068 3064 3060 3055 3050 3045 3040 3036 3031 3026 3018 3011 3003 2994 2987 2981 2975 2970 2966 2961 2957